This demonstration page uses our WeatherBlox Daily Observations layout. Learn more.

39.92423, -83.80882

Hourly Observations for December 4, 2017

Temp ( °F °C ) Dew Point ( °F °C ) Humidity (%) Winds ( mph kmh ) Pressure ( in mb ) Visibility ( mi km ) Precip ( " mm )
12:56 am 00:56 Clear 38 3.3 32 0 79 79 SSE 8 13 30.19 1023 10 16.0934 0 0
1:56 am 01:56 Clear 41 5 32 0 70 70 SSE 10 17 30.18 1022 10 16.0934 0 0
2:56 am 02:56 Clear 41 5 32 0 70 70 SSE 8 13 30.2 1023 10 16.0934 0 0
3:56 am 03:56 Clear 38 3.3 31 -0.6 76 76 SE 9 15 30.19 1022 10 16.0934 0 0
4:56 am 04:56 Clear 37 2.8 31 -0.6 79 79 SE 8 13 30.19 1022 10 16.0934 0 0
5:56 am 05:56 Clear 39 3.9 31 -0.6 73 73 SE 9 15 30.19 1022 10 16.0934 0 0
6:56 am 06:56 Mostly Cloudy 40 4.4 31 -0.6 70 70 SE 10 17 30.19 1022 10 16.0934 0 0
7:56 am 07:56 Cloudy 41 5 32 0 70 70 SE 10 17 30.19 1023 10 16.0934 0 0
8:56 am 08:56 Sunny 42 5.6 33 0.6 71 71 SSE 5 7 30.19 1022 10 16.0934 0 0
9:56 am 09:56 Mostly Sunny 46 7.8 35 1.7 66 66 SSE 9 15 30.16 1022 10 16.0934 0 0
10:56 am 10:56 Sunny 51 10.6 37 2.8 59 59 SSE 12 19 30.13 1020 10 16.0934 0 0
11:56 am 11:56 Sunny 55 12.8 38 3.3 53 53 S 10 17 30.09 1019 10 16.0934 0 0
12:56 pm 12:56 Sunny 57 13.9 38 3.3 49 49 S 12 19 30.04 1017 10 16.0934 0 0
1:56 pm 13:56 Sunny 59 15 40 4.4 49 49 S 10 17 30.02 1017 10 16.0934 0 0
2:56 pm 14:56 Sunny 60 15.6 41 5 50 50 S 12 19 30 1016 10 16.0934 0 0
3:56 pm 15:56 Sunny 59 15 41 5 51 51 S 12 19 29.99 1016 10 16.0934 0 0
4:56 pm 16:56 Sunny 57 13.9 41 5 55 55 S 13 20 29.98 1015 10 16.0934 0 0
5:56 pm 17:56 Mostly Clear 56 13.3 40 4.4 55 55 S 8 13 29.98 1015 10 16.0934 0 0
6:56 pm 18:56 Mostly Cloudy 56 13.3 40 4.4 55 55 S 12 19 29.96 1015 10 16.0934 0 0
7:56 pm 19:56 Partly Cloudy 55 12.8 40 4.4 57 57 SSE 12 19 29.94 1014 10 16.0934 0 0
8:56 pm 20:56 Partly Cloudy 57 13.9 39 3.9 51 51 S 10 17 29.92 1013 10 16.0934 0 0
9:56 pm 21:56 Cloudy 59 15 39 3.9 48 48 S 16 26 29.91 1013 10 16.0934 0 0
10:56 pm 22:56 Cloudy with Light Rain 55 12.8 44 6.7 67 67 S 16 26 29.91 1013 10 16.0934 0 0.0254
11:56 pm 23:56 Cloudy with Light Rain 53 11.7 47 8.3 80 80 S 16 26 29.89 1012 10 16.0934 0.06 1.524

Powered by AerisWeather